Location: Observatoire
(46.1952°N, 5.3391°E)
Time: 06:42:40
(UTC+01:00)

Explorer 7 - Pass Details

Date: 19 February 2026
Orbit: 430 x 542 km, 50.2° (Epoch: 5 March)

Event Time Altitude Azimuth Distance (km) Brightness Sun altitude
Rises 20:19:48 0° 293° (WNW) 2,529 11.5 -23.0°
Reaches altitude 10° 20:21:56 10° 290° (WNW) 1,668 10.3 -23.4°
Enters shadow 20:25:15 58° 248° (WSW) 581 7.1 -24.0°
Maximum altitude 20:25:41 65° 209° (SSW) 552 - -24.0°
Drops below altitude 10° 20:29:35 10° 127° (SE) 1,729 - -24.7°
Sets 20:31:50 0° 125° (SE) 2,632 - -25.1°
